When you browse on this site, cookies collect data to enhance your experience and personalize the content and advertising you see.
Visit our Privacy Policy to learn more. By continuing to use the site, you agree to this use of cookies and data.
  • In Hungary
  • List of Countries
  • For 7 days
  • Water Temperature
  • Satellite Maps
  • Weather Map
  • News
  • Weather Widgets
  • user-avatar
    Login

    Hourly Weather Kalamb

    Today, 21 July, Sunday

    Time Temperature Precipitation Wind Pressure Humidity
    00:00 +27°C° 1.9 mm 1 mps 697 mmHg 88%
    01:00 +26°C° 1.9 mm 1 mps 697 mmHg 90%
    02:00 +26°C° 1.9 mm 1 mps 697 mmHg 91%
    03:00 +26°C° 0.6 mm 1 mps 697 mmHg 91%
    04:00 +26°C° 0.6 mm 1 mps 696 mmHg 91%
    05:00 +26°C° 0.6 mm 1 mps 696 mmHg 90%
    06:00 +26°C° 0.1 mm 1 mps 697 mmHg 88%
    07:00 +26°C° 0.1 mm 1 mps 698 mmHg 86%
    08:00 +27°C° 0.1 mm 2 mps 698 mmHg 84%
    09:00 +28°C° 0.3 mm 2 mps 698 mmHg 80%
    10:00 +29°C° 0.3 mm 2 mps 698 mmHg 76%
    11:00 +30°C° 0.3 mm 2 mps 698 mmHg 72%
    12:00 +30°C° 1.6 mm 2 mps 698 mmHg 71%
    13:00 +30°C° 1.6 mm 2 mps 698 mmHg 70%
    14:00 +31°C° 1.6 mm 2 mps 697 mmHg 70%
    15:00 +30°C° 3.5 mm 3 mps 697 mmHg 72%
    16:00 +30°C° 3.5 mm 3 mps 696 mmHg 74%
    17:00 +29°C° 3.5 mm 4 mps 696 mmHg 76%
    18:00 +29°C° 1.1 mm 3 mps 696 mmHg 80%
    19:00 +28°C° 1.1 mm 3 mps 697 mmHg 84%
    20:00 +27°C° 1.1 mm 3 mps 697 mmHg 87%
    21:00 +27°C° 0.3 mm 3 mps 697 mmHg 88%
    22:00 +27°C° 0.3 mm 3 mps 698 mmHg 88%
    23:00 +26°C° 0.3 mm 3 mps 698 mmHg 89%

    Tomorrow, 22 July, Monday

    Time Temperature Precipitation Wind Pressure Humidity
    00:00 +26°C° 0 mm 3 mps 697 mmHg 90%
    01:00 +26°C° 0 mm 3 mps 697 mmHg 90%
    02:00 +25°C° 0 mm 3 mps 697 mmHg 90%
    03:00 +25°C° 0 mm 3 mps 697 mmHg 91%
    04:00 +25°C° 0 mm 3 mps 697 mmHg 92%
    05:00 +25°C° 0 mm 3 mps 697 mmHg 93%
    06:00 +26°C° 0 mm 3 mps 697 mmHg 90%
    07:00 +26°C° 0 mm 3 mps 698 mmHg 88%
    08:00 +27°C° 0 mm 3 mps 698 mmHg 85%
    09:00 +28°C° 0.1 mm 3 mps 698 mmHg 80%
    10:00 +29°C° 0.1 mm 3 mps 698 mmHg 76%
    11:00 +30°C° 0.1 mm 3 mps 698 mmHg 71%
    12:00 +32°C° 0.8 mm 4 mps 698 mmHg 69%
    13:00 +32°C° 0.8 mm 4 mps 697 mmHg 68%
    14:00 +32°C° 0.8 mm 4 mps 697 mmHg 67%
    15:00 +32°C° 0.6 mm 5 mps 697 mmHg 70%
    16:00 +30°C° 0.6 mm 5 mps 696 mmHg 73%
    17:00 +29°C° 0.6 mm 5 mps 696 mmHg 76%
    18:00 +29°C° 0.1 mm 4 mps 696 mmHg 79%
    19:00 +28°C° 0.1 mm 4 mps 697 mmHg 83%
    20:00 +27°C° 0.1 mm 4 mps 697 mmHg 86%
    21:00 +27°C° 0.4 mm 3 mps 697 mmHg 87%
    22:00 +27°C° 0.4 mm 3 mps 697 mmHg 88%
    23:00 +26°C° 0.4 mm 3 mps 698 mmHg 89%

    Day after tomorrow, 23 July, Tuesday

    Time Temperature Precipitation Wind Pressure Humidity
    00:00 +26°C° 0 mm 3 mps 697 mmHg 89%
    01:00 +26°C° 0 mm 3 mps 697 mmHg 90%
    02:00 +26°C° 0 mm 3 mps 696 mmHg 90%
    03:00 +26°C° 0 mm 3 mps 696 mmHg 90%
    04:00 +26°C° 0 mm 3 mps 696 mmHg 91%
    05:00 +26°C° 0 mm 3 mps 696 mmHg 91%
    06:00 +26°C° 0 mm 3 mps 697 mmHg 89%
    07:00 +26°C° 0 mm 3 mps 697 mmHg 87%
    08:00 +27°C° 0 mm 3 mps 698 mmHg 86%
    09:00 +28°C° 0 mm 4 mps 698 mmHg 81%
    10:00 +29°C° 0 mm 4 mps 698 mmHg 77%
    11:00 +30°C° 0 mm 4 mps 698 mmHg 72%
    12:00 +30°C° 0.1 mm 4 mps 697 mmHg 72%
    13:00 +30°C° 0.1 mm 4 mps 697 mmHg 71%
    14:00 +30°C° 0.1 mm 4 mps 696 mmHg 71%
    15:00 +30°C° 1.2 mm 4 mps 696 mmHg 74%
    16:00 +29°C° 1.2 mm 5 mps 696 mmHg 78%
    17:00 +28°C° 1.2 mm 5 mps 696 mmHg 81%
    18:00 +28°C° 3.3 mm 4 mps 696 mmHg 84%
    19:00 +27°C° 3.3 mm 4 mps 697 mmHg 87%
    20:00 +26°C° 3.3 mm 4 mps 697 mmHg 91%
    21:00 +26°C° 2.9 mm 4 mps 697 mmHg 91%
    22:00 +26°C° 2.9 mm 4 mps 697 mmHg 91%
    23:00 +26°C° 2.9 mm 4 mps 698 mmHg 91%

    24 July, Wednesday

    Time Temperature Precipitation Wind Pressure Humidity
    00:00 +26°C° 1.3 mm 4 mps 697 mmHg 91%
    01:00 +26°C° 1.3 mm 4 mps 697 mmHg 91%
    02:00 +26°C° 1.3 mm 4 mps 696 mmHg 91%
    03:00 +25°C° 0.5 mm 4 mps 696 mmHg 91%
    04:00 +25°C° 0.5 mm 3 mps 696 mmHg 92%
    05:00 +25°C° 0.5 mm 3 mps 696 mmHg 92%
    06:00 +26°C° 0.3 mm 4 mps 697 mmHg 90%
    07:00 +26°C° 0.3 mm 4 mps 697 mmHg 88%
    08:00 +27°C° 0.3 mm 4 mps 698 mmHg 86%
    09:00 +28°C° 0.8 mm 4 mps 698 mmHg 83%
    10:00 +28°C° 0.8 mm 5 mps 698 mmHg 80%
    11:00 +29°C° 0.8 mm 5 mps 698 mmHg 77%
    12:00 +29°C° 0.9 mm 5 mps 697 mmHg 76%
    13:00 +30°C° 0.9 mm 5 mps 697 mmHg 75%
    14:00 +30°C° 0.9 mm 5 mps 696 mmHg 74%
    15:00 +29°C° 1.2 mm 5 mps 696 mmHg 76%
    16:00 +29°C° 1.2 mm 5 mps 696 mmHg 79%
    17:00 +28°C° 1.2 mm 5 mps 696 mmHg 81%
    18:00 +28°C° 0.7 mm 5 mps 696 mmHg 83%
    19:00 +27°C° 0.7 mm 4 mps 697 mmHg 86%
    20:00 +26°C° 0.7 mm 4 mps 697 mmHg 88%
    21:00 +26°C° 0.2 mm 4 mps 697 mmHg 88%
    22:00 +26°C° 0.2 mm 3 mps 697 mmHg 89%
    23:00 +26°C° 0.2 mm 3 mps 698 mmHg 90%

    25 July, Thursday

    Time Temperature Precipitation Wind Pressure Humidity
    00:00 +26°C° 0.5 mm 3 mps 697 mmHg 90%
    01:00 +25°C° 0.5 mm 3 mps 697 mmHg 91%
    02:00 +25°C° 0.5 mm 3 mps 697 mmHg 92%
    03:00 +25°C° 0.5 mm 3 mps 697 mmHg 92%
    04:00 +25°C° 0.5 mm 3 mps 697 mmHg 92%
    05:00 +25°C° 0.5 mm 3 mps 697 mmHg 92%
    06:00 +25°C° 0.9 mm 3 mps 697 mmHg 92%
    07:00 +25°C° 0.9 mm 3 mps 698 mmHg 91%
    08:00 +26°C° 0.9 mm 4 mps 698 mmHg 91%
    09:00 +25°C° 1.1 mm 4 mps 698 mmHg 91%
    10:00 +25°C° 1.1 mm 4 mps 698 mmHg 91%
    11:00 +25°C° 1.1 mm 4 mps 698 mmHg 91%
    12:00 +25°C° 0.4 mm 5 mps 698 mmHg 91%
    13:00 +25°C° 0.4 mm 5 mps 698 mmHg 90%
    14:00 +24°C° 0.4 mm 6 mps 697 mmHg 89%
    15:00 +25°C° 0.5 mm 5 mps 697 mmHg 90%
    16:00 +25°C° 0.5 mm 5 mps 697 mmHg 91%
    17:00 +25°C° 0.5 mm 4 mps 697 mmHg 92%
    18:00 +25°C° 0.8 mm 4 mps 697 mmHg 92%
    19:00 +25°C° 0.8 mm 4 mps 698 mmHg 93%
    20:00 +25°C° 0.8 mm 4 mps 698 mmHg 93%
    21:00 +25°C° 1.2 mm 4 mps 698 mmHg 93%
    22:00 +25°C° 1.2 mm 4 mps 699 mmHg 94%
    23:00 +25°C° 1.2 mm 4 mps 699 mmHg 94%

    26 July, Friday

    Time Temperature Precipitation Wind Pressure Humidity
    00:00 +24°C° 2.2 mm 3 mps 698 mmHg 94%
    01:00 +24°C° 2.2 mm 3 mps 698 mmHg 95%
    02:00 +24°C° 2.2 mm 3 mps 697 mmHg 95%
    03:00 +24°C° 3.2 mm 3 mps 697 mmHg 95%
    04:00 +24°C° 3.2 mm 3 mps 697 mmHg 95%
    05:00 +23°C° 3.2 mm 4 mps 697 mmHg 95%
    06:00 +24°C° 2.8 mm 3 mps 697 mmHg 95%
    07:00 +24°C° 2.8 mm 3 mps 698 mmHg 95%
    08:00 +24°C° 2.8 mm 3 mps 698 mmHg 95%
    09:00 +24°C° 7.7 mm 3 mps 698 mmHg 96%
    10:00 +24°C° 7.7 mm 3 mps 698 mmHg 97%
    11:00 +24°C° 7.7 mm 3 mps 698 mmHg 97%
    12:00 +24°C° 5.7 mm 3 mps 698 mmHg 96%
    13:00 +23°C° 5.7 mm 4 mps 698 mmHg 95%
    14:00 +23°C° 5.7 mm 4 mps 698 mmHg 94%
    15:00 +23°C° 2.1 mm 5 mps 697 mmHg 94%
    16:00 +23°C° 2.1 mm 5 mps 697 mmHg 94%
    17:00 +23°C° 2.1 mm 6 mps 697 mmHg 93%
    18:00 +23°C° 0.7 mm 5 mps 698 mmHg 93%
    19:00 +23°C° 0.7 mm 5 mps 698 mmHg 93%
    20:00 +23°C° 0.7 mm 5 mps 698 mmHg 93%
    21:00 +23°C° 0.5 mm 5 mps 699 mmHg 93%
    22:00 +22°C° 0.5 mm 5 mps 699 mmHg 92%
    23:00 +22°C° 0.5 mm 6 mps 699 mmHg 92%
    Show more